date,time,SUV Intensity [MED/Hr],UV Index,Daily total [MED],Since Last [MED]
06/10/2022,00:01:11,0.000,0.0,0.0,0.0
06/10/2022,00:02:10,0.000,0.0,0.0,0.0
06/10/2022,00:03:10,-0.001,0.0,0.0,0.0
06/10/2022,00:05:28,0.000,0.0,0.0,0.0
06/10/2022,00:06:10,-0.001,0.0,0.0,0.0
06/10/2022,00:07:13,0.000,0.0,0.0,0.0
06/10/2022,00:08:11,0.000,0.0,0.0,0.0
06/10/2022,00:09:11,0.001,0.0,0.0,0.0
06/10/2022,00:10:11,0.000,0.0,0.0,0.0
06/10/2022,00:11:10,0.000,0.0,0.0,0.0
06/10/2022,00:12:11,0.001,0.0,0.0,0.0
06/10/2022,00:13:10,0.000,0.0,0.0,0.0
06/10/2022,00:14:11,0.000,0.0,0.0,0.0
06/10/2022,00:15:11,0.000,0.0,0.0,0.0
06/10/2022,00:16:10,0.000,0.0,0.0,0.0
06/10/2022,00:17:11,0.000,0.0,0.0,0.0
06/10/2022,00:18:11,0.000,0.0,0.0,0.0
06/10/2022,00:19:10,0.001,0.0,0.0,0.0
06/10/2022,00:20:10,-0.000,0.0,0.0,0.0
06/10/2022,00:21:11,0.001,0.0,0.0,0.0
06/10/2022,00:22:14,-0.001,0.0,0.0,0.0
06/10/2022,00:23:11,0.000,0.0,0.0,0.0
06/10/2022,00:24:11,0.000,0.0,0.0,0.0
06/10/2022,00:25:14,0.001,0.0,0.0,0.0
06/10/2022,00:26:13,0.000,0.0,0.0,0.0
06/10/2022,00:27:12,0.000,0.0,0.0,0.0
06/10/2022,00:28:11,0.000,0.0,0.0,0.0
06/10/2022,00:29:11,-0.001,0.0,0.0,0.0
06/10/2022,00:30:11,0.001,0.0,0.0,0.0
06/10/2022,00:31:11,0.000,0.0,0.0,0.0
06/10/2022,00:32:11,-0.001,0.0,0.0,0.0
06/10/2022,00:33:11,0.001,0.0,0.0,0.0
06/10/2022,00:34:10,0.000,0.0,0.0,0.0
06/10/2022,00:35:10,-0.001,0.0,0.0,0.0
06/10/2022,00:36:11,0.000,0.0,0.0,0.0
06/10/2022,00:37:12,0.000,0.0,0.0,0.0
06/10/2022,00:38:10,0.000,0.0,0.0,0.0
06/10/2022,00:39:11,0.000,0.0,0.0,0.0
06/10/2022,00:40:11,0.000,0.0,0.0,0.0
06/10/2022,00:41:10,0.000,0.0,0.0,0.0
06/10/2022,00:42:11,0.000,0.0,0.0,0.0
06/10/2022,00:43:11,-0.001,0.0,0.0,0.0
06/10/2022,00:44:11,-0.000,0.0,0.0,0.0
06/10/2022,00:45:10,0.000,0.0,0.0,0.0
06/10/2022,00:46:10,0.000,0.0,0.0,0.0
06/10/2022,00:47:11,0.000,0.0,0.0,0.0
06/10/2022,00:48:10,-0.000,0.0,0.0,0.0
06/10/2022,00:49:11,-0.001,0.0,0.0,0.0
06/10/2022,00:50:11,0.000,0.0,0.0,0.0
06/10/2022,00:51:10,0.000,0.0,0.0,0.0
06/10/2022,00:52:11,0.000,0.0,0.0,0.0
06/10/2022,00:53:11,0.000,0.0,0.0,0.0
06/10/2022,00:54:10,-0.001,0.0,0.0,0.0
06/10/2022,00:55:11,0.000,0.0,0.0,0.0
06/10/2022,00:56:11,0.001,0.0,0.0,0.0
06/10/2022,00:57:10,0.000,0.0,0.0,0.0
06/10/2022,00:58:11,0.000,0.0,0.0,0.0
06/10/2022,00:59:11,0.001,0.0,0.0,0.0
06/10/2022,01:00:11,-0.001,0.0,0.0,0.0
06/10/2022,01:01:11,0.000,0.0,0.0,0.0
06/10/2022,01:02:11,0.000,0.0,0.0,0.0
06/10/2022,01:03:11,-0.000,0.0,0.0,0.0
06/10/2022,01:04:11,0.001,0.0,0.0,0.0
06/10/2022,01:05:11,0.001,0.0,0.0,0.0
06/10/2022,01:06:11,0.000,0.0,0.0,0.0
06/10/2022,01:07:10,0.000,0.0,0.0,0.0
06/10/2022,01:08:11,-0.000,0.0,0.0,0.0
06/10/2022,01:09:11,0.000,0.0,0.0,0.0
06/10/2022,01:10:11,-0.000,0.0,0.0,0.0
06/10/2022,01:11:11,0.000,0.0,0.0,0.0
06/10/2022,01:12:11,0.000,0.0,0.0,0.0
06/10/2022,01:13:11,0.001,0.0,0.0,0.0
06/10/2022,01:14:11,0.000,0.0,0.0,0.0
06/10/2022,01:15:11,0.000,0.0,0.0,0.0
06/10/2022,01:16:11,0.000,0.0,0.0,0.0
06/10/2022,01:17:11,0.000,0.0,0.0,0.0
06/10/2022,01:18:10,0.000,0.0,0.0,0.0
06/10/2022,01:19:11,0.000,0.0,0.0,0.0
06/10/2022,01:20:11,-0.000,0.0,0.0,0.0
06/10/2022,01:21:11,0.001,0.0,0.0,0.0
06/10/2022,01:22:10,-0.001,0.0,0.0,0.0
06/10/2022,01:23:11,0.001,0.0,0.0,0.0
06/10/2022,01:24:11,0.000,0.0,0.0,0.0
06/10/2022,01:25:11,-0.000,0.0,0.0,0.0
06/10/2022,01:26:11,0.000,0.0,0.0,0.0
06/10/2022,01:27:11,-0.000,0.0,0.0,0.0
06/10/2022,01:28:10,0.000,0.0,0.0,0.0
06/10/2022,01:29:11,-0.001,0.0,0.0,0.0
06/10/2022,01:30:10,0.001,0.0,0.0,0.0
06/10/2022,01:31:11,0.000,0.0,0.0,0.0
06/10/2022,01:32:11,0.001,0.0,0.0,0.0
06/10/2022,01:33:10,0.000,0.0,0.0,0.0
06/10/2022,01:34:11,0.000,0.0,0.0,0.0
06/10/2022,01:35:11,0.001,0.0,0.0,0.0
06/10/2022,01:36:11,0.000,0.0,0.0,0.0
06/10/2022,01:37:11,-0.001,0.0,0.0,0.0
06/10/2022,01:38:11,0.000,0.0,0.0,0.0
06/10/2022,01:39:11,0.000,0.0,0.0,0.0
06/10/2022,01:40:11,0.001,0.0,0.0,0.0
06/10/2022,01:41:11,0.000,0.0,0.0,0.0
06/10/2022,01:42:10,0.000,0.0,0.0,0.0
06/10/2022,01:43:10,0.001,0.0,0.0,0.0
06/10/2022,01:44:11,0.000,0.0,0.0,0.0
06/10/2022,01:45:11,0.000,0.0,0.0,0.0
06/10/2022,01:46:11,0.000,0.0,0.0,0.0
06/10/2022,01:47:11,0.000,0.0,0.0,0.0
06/10/2022,01:48:11,0.001,0.0,0.0,0.0
06/10/2022,01:49:11,0.001,0.0,0.0,0.0
06/10/2022,01:50:11,0.000,0.0,0.0,0.0
06/10/2022,01:51:11,-0.001,0.0,0.0,0.0
06/10/2022,01:52:11,0.000,0.0,0.0,0.0
06/10/2022,01:53:11,0.000,0.0,0.0,0.0
06/10/2022,01:54:10,0.000,0.0,0.0,0.0
06/10/2022,01:55:11,-0.001,0.0,0.0,0.0
06/10/2022,01:56:11,-0.001,0.0,0.0,0.0
06/10/2022,01:57:11,-0.000,0.0,0.0,0.0
06/10/2022,01:58:11,0.001,0.0,0.0,0.0
06/10/2022,01:59:10,0.000,0.0,0.0,0.0
06/10/2022,02:00:11,0.000,0.0,0.0,0.0
06/10/2022,02:01:11,0.000,0.0,0.0,0.0
06/10/2022,02:02:11,0.000,0.0,0.0,0.0
06/10/2022,02:03:11,-0.000,0.0,0.0,0.0
06/10/2022,02:04:11,0.000,0.0,0.0,0.0
06/10/2022,02:05:11,0.000,0.0,0.0,0.0
06/10/2022,02:06:11,0.001,0.0,0.0,0.0
06/10/2022,02:07:11,0.000,0.0,0.0,0.0
06/10/2022,02:08:11,0.001,0.0,0.0,0.0
06/10/2022,02:09:11,-0.001,0.0,0.0,0.0
06/10/2022,02:10:11,-0.001,0.0,0.0,0.0
06/10/2022,02:11:11,0.000,0.0,0.0,0.0
06/10/2022,02:12:11,0.000,0.0,0.0,0.0
06/10/2022,02:13:11,0.000,0.0,0.0,0.0
06/10/2022,02:14:11,0.000,0.0,0.0,0.0
06/10/2022,02:15:11,0.000,0.0,0.0,0.0
06/10/2022,02:16:11,0.000,0.0,0.0,0.0
06/10/2022,02:17:11,-0.001,0.0,0.0,0.0
06/10/2022,02:18:11,0.000,0.0,0.0,0.0
06/10/2022,02:19:11,0.001,0.0,0.0,0.0
06/10/2022,02:20:11,-0.001,0.0,0.0,0.0
06/10/2022,02:21:11,0.000,0.0,0.0,0.0
06/10/2022,02:22:11,0.000,0.0,0.0,0.0
06/10/2022,02:23:11,0.001,0.0,0.0,0.0
06/10/2022,02:24:10,0.000,0.0,0.0,0.0
06/10/2022,02:25:10,0.000,0.0,0.0,0.0
06/10/2022,02:26:11,0.000,0.0,0.0,0.0
06/10/2022,02:27:11,0.000,0.0,0.0,0.0
06/10/2022,02:28:11,-0.000,0.0,0.0,0.0
06/10/2022,02:29:13,0.000,0.0,0.0,0.0
06/10/2022,02:30:11,-0.001,0.0,0.0,0.0
06/10/2022,02:31:11,-0.000,0.0,0.0,0.0
06/10/2022,02:32:11,0.001,0.0,0.0,0.0
06/10/2022,02:33:11,-0.001,0.0,0.0,0.0
06/10/2022,02:34:11,0.000,0.0,0.0,0.0
06/10/2022,02:35:11,0.000,0.0,0.0,0.0
06/10/2022,02:36:11,0.000,0.0,0.0,0.0
06/10/2022,02:37:11,0.000,0.0,0.0,0.0
06/10/2022,02:38:11,0.000,0.0,0.0,0.0
06/10/2022,02:39:11,0.001,0.0,0.0,0.0
06/10/2022,02:40:11,0.000,0.0,0.0,0.0
06/10/2022,02:41:12,0.000,0.0,0.0,0.0
06/10/2022,02:42:11,0.000,0.0,0.0,0.0
06/10/2022,02:43:11,0.000,0.0,0.0,0.0
06/10/2022,02:44:11,0.000,0.0,0.0,0.0
06/10/2022,02:45:11,-0.001,0.0,0.0,0.0
06/10/2022,02:46:11,0.001,0.0,0.0,0.0
06/10/2022,02:47:11,0.001,0.0,0.0,0.0
06/10/2022,02:48:11,0.000,0.0,0.0,0.0
06/10/2022,02:49:11,0.000,0.0,0.0,0.0
06/10/2022,02:50:11,0.001,0.0,0.0,0.0
06/10/2022,02:51:11,-0.000,0.0,0.0,0.0
06/10/2022,02:52:11,0.000,0.0,0.0,0.0
06/10/2022,02:53:11,0.001,0.0,0.0,0.0
06/10/2022,02:54:11,-0.001,0.0,0.0,0.0
06/10/2022,02:55:11,0.000,0.0,0.0,0.0
06/10/2022,02:56:11,0.000,0.0,0.0,0.0
06/10/2022,02:57:11,0.001,0.0,0.0,0.0
06/10/2022,02:58:11,-0.001,0.0,0.0,0.0
06/10/2022,02:59:11,0.000,0.0,0.0,0.0
06/10/2022,03:00:11,0.001,0.0,0.0,0.0
06/10/2022,03:01:11,0.000,0.0,0.0,0.0
06/10/2022,03:02:11,0.001,0.0,0.0,0.0
06/10/2022,03:03:11,0.000,0.0,0.0,0.0
06/10/2022,03:04:11,0.000,0.0,0.0,0.0
06/10/2022,03:05:11,0.001,0.0,0.0,0.0
06/10/2022,03:06:11,0.000,0.0,0.0,0.0
06/10/2022,03:07:11,-0.000,0.0,0.0,0.0
06/10/2022,03:08:11,0.000,0.0,0.0,0.0
06/10/2022,03:09:11,-0.001,0.0,0.0,0.0
06/10/2022,03:10:11,0.000,0.0,0.0,0.0
06/10/2022,03:11:11,0.000,0.0,0.0,0.0
06/10/2022,03:12:11,0.001,0.0,0.0,0.0
06/10/2022,03:13:11,0.000,0.0,0.0,0.0
06/10/2022,03:14:12,0.001,0.0,0.0,0.0
06/10/2022,03:15:11,0.000,0.0,0.0,0.0
06/10/2022,03:16:11,0.000,0.0,0.0,0.0
06/10/2022,03:17:11,0.000,0.0,0.0,0.0
06/10/2022,03:18:11,0.000,0.0,0.0,0.0
06/10/2022,03:19:11,0.000,0.0,0.0,0.0
06/10/2022,03:20:11,0.001,0.0,0.0,0.0
06/10/2022,03:21:11,0.000,0.0,0.0,0.0
06/10/2022,03:22:11,0.000,0.0,0.0,0.0
06/10/2022,03:23:11,0.001,0.0,0.0,0.0
06/10/2022,03:24:11,0.000,0.0,0.0,0.0
06/10/2022,03:25:11,0.000,0.0,0.0,0.0
06/10/2022,03:26:11,0.000,0.0,0.0,0.0
06/10/2022,03:27:11,0.000,0.0,0.0,0.0
06/10/2022,03:28:11,0.000,0.0,0.0,0.0
06/10/2022,03:29:12,0.000,0.0,0.0,0.0
06/10/2022,03:30:12,0.000,0.0,0.0,0.0
06/10/2022,03:31:11,-0.000,0.0,0.0,0.0
06/10/2022,03:32:11,0.000,0.0,0.0,0.0
06/10/2022,03:33:11,0.000,0.0,0.0,0.0
06/10/2022,03:34:11,0.000,0.0,0.0,0.0
06/10/2022,03:35:11,0.001,0.0,0.0,0.0
06/10/2022,03:36:11,0.000,0.0,0.0,0.0
06/10/2022,03:37:11,0.001,0.0,0.0,0.0
06/10/2022,03:38:11,0.000,0.0,0.0,0.0
06/10/2022,03:39:11,0.000,0.0,0.0,0.0
06/10/2022,03:40:11,-0.000,0.0,0.0,0.0
06/10/2022,03:41:11,0.001,0.0,0.0,0.0
06/10/2022,03:42:11,0.001,0.0,0.0,0.0
06/10/2022,03:43:11,0.000,0.0,0.0,0.0
06/10/2022,03:44:11,0.000,0.0,0.0,0.0
06/10/2022,03:45:12,0.000,0.0,0.0,0.0
06/10/2022,03:46:11,0.000,0.0,0.0,0.0
06/10/2022,03:47:11,0.000,0.0,0.0,0.0
06/10/2022,03:48:11,0.000,0.0,0.0,0.0
06/10/2022,03:49:11,0.001,0.0,0.0,0.0
06/10/2022,03:50:11,-0.000,0.0,0.0,0.0
06/10/2022,03:51:12,-0.000,0.0,0.0,0.0
06/10/2022,03:52:11,0.001,0.0,0.0,0.0
06/10/2022,03:53:11,0.000,0.0,0.0,0.0
06/10/2022,03:54:11,0.000,0.0,0.0,0.0
06/10/2022,03:55:11,0.000,0.0,0.0,0.0
06/10/2022,03:56:11,0.000,0.0,0.0,0.0
06/10/2022,03:57:11,0.000,0.0,0.0,0.0
06/10/2022,03:58:11,0.000,0.0,0.0,0.0
06/10/2022,03:59:11,0.000,0.0,0.0,0.0
06/10/2022,04:00:11,-0.000,0.0,0.0,0.0
06/10/2022,04:01:11,-0.000,0.0,0.0,0.0
06/10/2022,04:02:11,0.000,0.0,0.0,0.0
06/10/2022,04:03:12,-0.000,0.0,0.0,0.0
06/10/2022,04:04:11,0.000,0.0,0.0,0.0
06/10/2022,04:05:11,0.001,0.0,0.0,0.0
06/10/2022,04:06:11,0.001,0.0,0.0,0.0
06/10/2022,04:07:11,0.001,0.0,0.0,0.0
06/10/2022,04:08:11,0.000,0.0,0.0,0.0
06/10/2022,04:09:11,-0.000,0.0,0.0,0.0
06/10/2022,04:10:11,0.001,0.0,0.0,0.0
06/10/2022,04:11:11,0.000,0.0,0.0,0.0
06/10/2022,04:12:11,0.000,0.0,0.0,0.0
06/10/2022,04:13:11,-0.000,0.0,0.0,0.0
06/10/2022,04:14:11,0.001,0.0,0.0,0.0
06/10/2022,04:15:11,0.001,0.0,0.0,0.0
06/10/2022,04:16:12,0.001,0.0,0.0,0.0
06/10/2022,04:17:11,0.000,0.0,0.0,0.0
06/10/2022,04:18:11,0.001,0.0,0.0,0.0
06/10/2022,04:19:12,0.001,0.0,0.0,0.0
06/10/2022,04:20:11,0.001,0.0,0.0,0.0
06/10/2022,04:21:12,0.001,0.0,0.0,0.0
06/10/2022,04:22:11,0.000,0.0,0.0,0.0
06/10/2022,04:23:11,0.001,0.0,0.0,0.0
06/10/2022,04:24:11,0.001,0.0,0.0,0.0
06/10/2022,04:25:11,-0.001,0.0,0.0,0.0
06/10/2022,04:26:11,0.001,0.0,0.0,0.0
06/10/2022,04:27:12,0.001,0.0,0.0,0.0
06/10/2022,04:28:11,-0.001,0.0,0.0,0.0
06/10/2022,04:29:12,0.001,0.0,0.0,0.0
06/10/2022,04:30:11,0.000,0.0,0.0,0.0
06/10/2022,04:31:11,0.001,0.0,0.0,0.0
06/10/2022,04:32:11,0.001,0.0,0.0,0.0
06/10/2022,04:33:11,0.001,0.0,0.0,0.0
06/10/2022,04:34:11,0.001,0.0,0.0,0.0
06/10/2022,04:35:12,-0.000,0.0,0.0,0.0
06/10/2022,04:36:12,0.001,0.0,0.0,0.0
06/10/2022,04:37:11,0.001,0.0,0.0,0.0
06/10/2022,04:38:11,0.000,0.0,0.0,0.0
06/10/2022,04:39:12,0.001,0.0,0.0,0.0
06/10/2022,04:40:11,0.000,0.0,0.0,0.0
06/10/2022,04:41:11,0.001,0.0,0.0,0.0
06/10/2022,04:42:12,0.001,0.0,0.0,0.0
06/10/2022,04:43:11,0.000,0.0,0.0,0.0
06/10/2022,04:44:11,0.000,0.0,0.0,0.0
06/10/2022,04:45:11,0.001,0.0,0.0,0.0
06/10/2022,04:46:12,0.001,0.0,0.0,0.0
06/10/2022,04:47:11,-0.001,0.0,0.0,0.0
06/10/2022,04:48:11,0.001,0.0,0.0,0.0
06/10/2022,04:49:12,0.001,0.0,0.0,0.0
06/10/2022,04:50:11,0.001,0.0,0.0,0.0
06/10/2022,04:51:12,0.001,0.0,0.0,0.0
06/10/2022,04:52:11,0.001,0.0,0.0,0.0
06/10/2022,04:53:12,0.001,0.0,0.0,0.0
06/10/2022,04:54:11,0.001,0.0,0.0,0.0
06/10/2022,04:55:11,0.001,0.0,0.0,0.0
06/10/2022,04:56:11,0.000,0.0,0.0,0.0
06/10/2022,04:57:11,0.001,0.0,0.0,0.0
06/10/2022,04:58:11,0.001,0.0,0.0,0.0
06/10/2022,04:59:11,0.001,0.0,0.0,0.0
06/10/2022,05:00:11,0.001,0.0,0.0,0.0
06/10/2022,05:01:11,0.001,0.0,0.0,0.0
06/10/2022,05:02:11,0.001,0.0,0.0,0.0
06/10/2022,05:03:11,0.000,0.0,0.0,0.0
06/10/2022,05:04:12,0.001,0.0,0.0,0.0
06/10/2022,05:05:11,0.000,0.0,0.0,0.0
06/10/2022,05:06:11,0.001,0.0,0.0,0.0
06/10/2022,05:07:11,0.001,0.0,0.0,0.0
06/10/2022,05:08:12,-0.000,0.0,0.0,0.0
06/10/2022,05:09:11,0.001,0.0,0.0,0.0
06/10/2022,05:10:11,0.001,0.0,0.0,0.0
06/10/2022,05:11:11,0.001,0.0,0.0,0.0
06/10/2022,05:12:12,0.001,0.0,0.0,0.0
06/10/2022,05:13:15,0.001,0.0,0.0,0.0
06/10/2022,05:14:12,0.002,0.0,0.0,0.0
06/10/2022,05:15:11,0.001,0.0,0.0,0.0
06/10/2022,05:16:11,0.000,0.0,0.0,0.0
06/10/2022,05:17:11,0.001,0.0,0.0,0.0
06/10/2022,05:18:11,0.001,0.0,0.0,0.0
06/10/2022,05:19:11,0.001,0.0,0.0,0.0
06/10/2022,05:20:12,0.001,0.0,0.0,0.0
06/10/2022,05:21:11,0.001,0.0,0.0,0.0
06/10/2022,05:22:12,0.001,0.0,0.0,0.0
06/10/2022,05:23:11,0.001,0.0,0.0,0.0
06/10/2022,05:24:12,0.000,0.0,0.0,0.0
06/10/2022,05:25:11,0.000,0.0,0.0,0.0
06/10/2022,05:26:11,0.002,0.0,0.0,0.0
06/10/2022,05:27:11,0.001,0.0,0.0,0.0
06/10/2022,05:28:11,0.001,0.0,0.0,0.0
06/10/2022,05:29:11,0.001,0.0,0.0,0.0
06/10/2022,05:30:12,0.001,0.0,0.0,0.0
06/10/2022,05:31:11,0.001,0.0,0.0,0.0
06/10/2022,05:32:11,0.001,0.0,0.0,0.0
06/10/2022,05:33:11,0.001,0.0,0.0,0.0
06/10/2022,05:34:11,0.001,0.0,0.0,0.0
06/10/2022,05:35:12,0.001,0.0,0.0,0.0
06/10/2022,05:36:11,0.001,0.0,0.0,0.0
06/10/2022,05:37:11,0.001,0.0,0.0,0.0
06/10/2022,05:38:11,0.001,0.0,0.0,0.0
06/10/2022,05:39:12,0.001,0.0,0.0,0.0
06/10/2022,05:40:11,0.001,0.0,0.0,0.0
06/10/2022,05:41:11,0.001,0.0,0.0,0.0
06/10/2022,05:42:11,0.001,0.0,0.0,0.0
06/10/2022,05:43:11,0.001,0.0,0.0,0.0
06/10/2022,05:44:12,0.001,0.0,0.0,0.0
06/10/2022,05:45:11,0.001,0.0,0.0,0.0
06/10/2022,05:46:11,0.001,0.0,0.0,0.0
06/10/2022,05:47:11,0.000,0.0,0.0,0.0
06/10/2022,05:48:11,0.001,0.0,0.0,0.0
06/10/2022,05:49:11,0.001,0.0,0.0,0.0
06/10/2022,05:50:12,0.000,0.0,0.0,0.0
06/10/2022,05:51:11,0.001,0.0,0.0,0.0
06/10/2022,05:52:11,0.001,0.0,0.0,0.0
06/10/2022,05:53:12,0.002,0.0,0.0,0.0
06/10/2022,05:54:11,0.001,0.0,0.0,0.0
06/10/2022,05:55:11,0.001,0.0,0.0,0.0
06/10/2022,05:56:11,0.001,0.0,0.0,0.0
06/10/2022,05:57:11,0.001,0.0,0.0,0.0
06/10/2022,05:58:12,0.001,0.0,0.0,0.0
06/10/2022,05:59:11,0.001,0.0,0.0,0.0
06/10/2022,06:00:12,0.001,0.0,0.0,0.0
06/10/2022,06:01:11,0.001,0.0,0.0,0.0
06/10/2022,06:02:11,0.002,0.0,0.0,0.0
06/10/2022,06:03:12,0.002,0.0,0.0,0.0
06/10/2022,06:04:11,0.002,0.0,0.0,0.0
06/10/2022,06:05:12,0.001,0.0,0.0,0.0
06/10/2022,06:06:11,0.002,0.0,0.0,0.0
06/10/2022,06:07:11,0.003,0.0,0.0,0.0
06/10/2022,06:08:11,0.002,0.0,0.0,0.0
06/10/2022,06:09:11,0.002,0.0,0.0,0.0
06/10/2022,06:10:12,0.003,0.0,0.0,0.0
06/10/2022,06:11:11,0.003,0.0,0.0,0.0
06/10/2022,06:12:11,0.004,0.0,0.0,0.0
06/10/2022,06:13:11,0.003,0.0,0.0,0.0
06/10/2022,06:14:11,0.003,0.0,0.0,0.0
06/10/2022,06:15:12,0.004,0.0,0.0,0.0
06/10/2022,06:16:11,0.003,0.0,0.0,0.0
06/10/2022,06:17:12,0.004,0.0,0.0,0.0
06/10/2022,06:18:11,0.004,0.0,0.0,0.0
06/10/2022,06:19:11,0.003,0.0,0.0,0.0
06/10/2022,06:20:11,0.005,0.0,0.0,0.0
06/10/2022,06:21:11,0.005,0.0,0.0,0.0
06/10/2022,06:22:11,0.005,0.0,0.0,0.0
06/10/2022,06:23:12,0.006,0.0,0.0,0.0
06/10/2022,06:24:11,0.006,0.0,0.0,0.0
06/10/2022,06:25:11,0.006,0.0,0.0,0.0
06/10/2022,06:26:11,0.007,0.0,0.0,0.0
06/10/2022,06:27:11,0.008,0.0,0.0,0.0
06/10/2022,06:28:11,0.007,0.0,0.0,0.0
06/10/2022,06:29:11,0.008,0.0,0.0,0.0
06/10/2022,06:30:12,0.008,0.0,0.001,0.001
06/10/2022,06:31:11,0.008,0.0,0.001,0.0
06/10/2022,06:32:11,0.008,0.0,0.001,0.0
06/10/2022,06:33:12,0.009,0.0,0.001,0.0
06/10/2022,06:34:11,0.009,0.0,0.001,0.0
06/10/2022,06:35:12,0.011,0.0,0.001,0.0
06/10/2022,06:36:11,0.011,0.0,0.001,0.0
06/10/2022,06:37:11,0.012,0.0,0.002,0.001
06/10/2022,06:38:11,0.012,0.0,0.002,0.0
06/10/2022,06:39:11,0.011,0.0,0.002,0.0
06/10/2022,06:40:11,0.012,0.0,0.002,0.0
06/10/2022,06:41:11,0.013,0.0,0.002,0.0
06/10/2022,06:42:12,0.014,0.0,0.003,0.001
06/10/2022,06:43:12,0.014,0.0,0.003,0.0
06/10/2022,06:44:11,0.015,0.0,0.003,0.0
06/10/2022,06:45:12,0.016,0.0,0.003,0.0
06/10/2022,06:46:11,0.016,0.0,0.004,0.001
06/10/2022,06:47:11,0.016,0.0,0.004,0.0
06/10/2022,06:48:12,0.017,0.0,0.004,0.0
06/10/2022,06:49:11,0.018,0.0,0.004,0.0
06/10/2022,06:50:12,0.019,0.0,0.005,0.001
06/10/2022,06:51:11,0.019,0.0,0.005,0.0
06/10/2022,06:52:12,0.020,0.0,0.005,0.0
06/10/2022,06:53:11,0.020,0.0,0.006,0.001
06/10/2022,06:54:11,0.022,0.0,0.006,0.0
06/10/2022,06:55:11,0.022,0.0,0.006,0.0
06/10/2022,06:56:11,0.024,0.0,0.007,0.001
06/10/2022,06:57:11,0.024,0.0,0.007,0.0
06/10/2022,06:58:11,0.024,0.0,0.008,0.001
06/10/2022,06:59:12,0.026,0.0,0.008,0.0
06/10/2022,07:00:11,0.027,0.0,0.008,0.0
06/10/2022,07:01:11,0.027,0.0,0.009,0.001
06/10/2022,07:02:11,0.028,0.0,0.009,0.0
06/10/2022,07:03:12,0.029,0.0,0.01,0.001
06/10/2022,07:04:11,0.030,0.0,0.01,0.0
06/10/2022,07:05:11,0.031,0.0,0.011,0.001
06/10/2022,07:06:12,0.031,0.0,0.011,0.0
06/10/2022,07:07:11,0.033,0.0,0.012,0.001
06/10/2022,07:08:11,0.034,0.0,0.013,0.001
06/10/2022,07:09:12,0.035,0.0,0.013,0.0
06/10/2022,07:10:11,0.036,0.0,0.014,0.001
06/10/2022,07:11:11,0.037,0.0,0.014,0.0
06/10/2022,07:12:12,0.037,0.0,0.015,0.001
06/10/2022,07:13:11,0.040,0.0,0.016,0.001
06/10/2022,07:14:11,0.041,0.0,0.016,0.0
06/10/2022,07:15:11,0.042,0.0,0.017,0.001
06/10/2022,07:16:12,0.043,0.0,0.018,0.001
06/10/2022,07:17:11,0.045,0.0,0.018,0.0
06/10/2022,07:18:11,0.046,0.0,0.019,0.001
06/10/2022,07:19:12,0.047,0.0,0.02,0.001
06/10/2022,07:20:11,0.048,0.0,0.021,0.001
06/10/2022,07:21:12,0.050,0.0,0.021,0.0
06/10/2022,07:22:11,0.052,0.0,0.022,0.001
06/10/2022,07:23:11,0.052,0.0,0.023,0.001
06/10/2022,07:24:12,0.054,0.0,0.024,0.001
06/10/2022,07:25:11,0.056,0.0,0.025,0.001
06/10/2022,07:26:11,0.057,0.0,0.026,0.001
06/10/2022,07:27:11,0.059,0.0,0.027,0.001
06/10/2022,07:28:12,0.060,0.0,0.028,0.001
06/10/2022,07:29:11,0.062,0.0,0.029,0.001
06/10/2022,07:30:11,0.063,0.0,0.03,0.001
06/10/2022,07:31:12,0.064,0.0,0.031,0.001
06/10/2022,07:32:12,0.066,0.0,0.032,0.001
06/10/2022,07:33:12,0.068,0.0,0.033,0.001
06/10/2022,07:34:11,0.069,0.0,0.034,0.001
06/10/2022,07:35:11,0.071,0.0,0.035,0.001
06/10/2022,07:36:12,0.072,0.0,0.037,0.002
06/10/2022,07:37:11,0.073,0.0,0.038,0.001
06/10/2022,07:38:11,0.075,0.0,0.039,0.001
06/10/2022,07:39:12,0.077,0.0,0.04,0.001
06/10/2022,07:40:11,0.079,0.0,0.042,0.002
06/10/2022,07:41:11,0.082,0.0,0.043,0.001
06/10/2022,07:42:11,0.083,0.0,0.044,0.001
06/10/2022,07:43:11,0.085,0.0,0.046,0.002
06/10/2022,07:44:11,0.088,0.0,0.047,0.001
06/10/2022,07:45:12,0.090,0.0,0.049,0.002
06/10/2022,07:46:11,0.091,0.0,0.05,0.001
06/10/2022,07:47:12,0.093,0.0,0.052,0.002
06/10/2022,07:48:11,0.095,0.0,0.053,0.001
06/10/2022,07:49:11,0.096,0.0,0.055,0.002
06/10/2022,07:50:12,0.099,0.0,0.057,0.002
06/10/2022,07:51:11,0.100,0.0,0.058,0.001
06/10/2022,07:52:12,0.103,0.0,0.06,0.002
06/10/2022,07:53:12,0.105,0.0,0.062,0.002
06/10/2022,07:54:12,0.108,0.0,0.063,0.001
06/10/2022,07:55:12,0.110,0.0,0.065,0.002
06/10/2022,07:56:11,0.112,0.0,0.067,0.002
06/10/2022,07:57:11,0.115,0.0,0.069,0.002
06/10/2022,07:58:12,0.117,0.0,0.071,0.002
06/10/2022,07:59:11,0.119,0.0,0.073,0.002
06/10/2022,08:00:11,0.121,0.0,0.075,0.002
06/10/2022,08:01:11,0.123,0.0,0.077,0.002
06/10/2022,08:02:11,0.126,0.0,0.079,0.002
06/10/2022,08:03:11,0.128,0.0,0.081,0.002
06/10/2022,08:04:12,0.130,0.0,0.083,0.002
06/10/2022,08:05:12,0.135,0.0,0.086,0.003
06/10/2022,08:06:12,0.137,0.0,0.088,0.002
06/10/2022,08:07:11,0.140,0.0,0.09,0.002
06/10/2022,08:08:11,0.141,0.0,0.092,0.002
06/10/2022,08:09:12,0.145,0.0,0.095,0.003
06/10/2022,08:10:12,0.147,0.0,0.097,0.002
06/10/2022,08:11:11,0.148,0.0,0.1,0.003
06/10/2022,08:12:11,0.151,0.0,0.102,0.002
06/10/2022,08:13:11,0.154,0.0,0.105,0.003
06/10/2022,08:14:12,0.157,0.0,0.107,0.002
06/10/2022,08:15:11,0.159,0.0,0.11,0.003
06/10/2022,08:16:11,0.163,0.0,0.113,0.003
06/10/2022,08:17:11,0.166,0.0,0.115,0.002
06/10/2022,08:18:12,0.167,0.0,0.118,0.003
06/10/2022,08:19:12,0.170,0.0,0.121,0.003
06/10/2022,08:20:11,0.171,0.0,0.124,0.003
06/10/2022,08:21:11,0.174,0.0,0.127,0.003
06/10/2022,08:22:11,0.179,0.0,0.13,0.003
06/10/2022,08:23:12,0.179,0.0,0.133,0.003
06/10/2022,08:24:11,0.184,0.0,0.136,0.003
06/10/2022,08:25:11,0.185,0.0,0.139,0.003
06/10/2022,08:26:12,0.188,0.0,0.142,0.003
06/10/2022,08:27:11,0.191,0.0,0.145,0.003
06/10/2022,08:28:11,0.196,0.0,0.148,0.003
06/10/2022,08:29:12,0.197,0.0,0.152,0.004
06/10/2022,08:30:11,0.201,0.0,0.155,0.003
06/10/2022,08:31:12,0.205,0.0,0.158,0.003
06/10/2022,08:32:12,0.208,0.0,0.162,0.004
06/10/2022,08:33:11,0.212,0.0,0.165,0.003
06/10/2022,08:34:11,0.215,0.0,0.169,0.004
06/10/2022,08:35:12,0.219,1.0,0.172,0.003
06/10/2022,08:36:12,0.223,1.0,0.176,0.004
06/10/2022,08:37:11,0.227,1.0,0.18,0.004
06/10/2022,08:38:12,0.229,1.0,0.184,0.004
06/10/2022,08:39:11,0.232,1.0,0.188,0.004
06/10/2022,08:40:12,0.235,1.0,0.191,0.003
06/10/2022,08:41:12,0.235,1.0,0.195,0.004
06/10/2022,08:42:12,0.240,1.0,0.199,0.004
06/10/2022,08:43:11,0.245,1.0,0.203,0.004
06/10/2022,08:44:11,0.247,1.0,0.207,0.004
06/10/2022,08:45:11,0.251,1.0,0.211,0.004
06/10/2022,08:46:11,0.254,1.0,0.216,0.005
06/10/2022,08:47:11,0.258,1.0,0.22,0.004
06/10/2022,08:48:12,0.262,1.0,0.224,0.004
06/10/2022,08:49:12,0.265,1.0,0.229,0.005
06/10/2022,08:50:12,0.267,1.0,0.233,0.004
06/10/2022,08:51:11,0.268,1.0,0.238,0.005
06/10/2022,08:52:12,0.274,1.0,0.242,0.004
06/10/2022,08:53:12,0.278,1.0,0.247,0.005
06/10/2022,08:54:11,0.282,1.0,0.251,0.004
06/10/2022,08:55:11,0.285,1.0,0.256,0.005
06/10/2022,08:56:12,0.291,1.0,0.261,0.005
06/10/2022,08:57:11,0.295,1.0,0.266,0.005
06/10/2022,08:58:11,0.297,1.0,0.271,0.005
06/10/2022,08:59:12,0.301,1.0,0.276,0.005
06/10/2022,09:00:11,0.304,1.0,0.281,0.005
06/10/2022,09:01:12,0.306,1.0,0.286,0.005
06/10/2022,09:02:11,0.302,1.0,0.291,0.005
06/10/2022,09:03:11,0.310,1.0,0.296,0.005
06/10/2022,09:04:12,0.317,1.0,0.301,0.005
06/10/2022,09:05:11,0.320,1.0,0.306,0.005
06/10/2022,09:06:12,0.321,1.0,0.312,0.006
06/10/2022,09:07:12,0.328,1.0,0.317,0.005
06/10/2022,09:08:12,0.331,1.0,0.323,0.006
06/10/2022,09:09:11,0.334,1.0,0.328,0.005
06/10/2022,09:10:12,0.335,1.0,0.334,0.006
06/10/2022,09:11:13,0.331,1.0,0.339,0.005
06/10/2022,09:12:11,0.332,1.0,0.345,0.006
06/10/2022,09:13:11,0.338,1.0,0.351,0.006
06/10/2022,09:14:12,0.344,1.0,0.356,0.005
06/10/2022,09:15:11,0.345,1.0,0.362,0.006
06/10/2022,09:16:11,0.344,1.0,0.368,0.006
06/10/2022,09:17:12,0.344,1.0,0.373,0.005
06/10/2022,09:18:12,0.355,1.0,0.379,0.006
06/10/2022,09:19:12,0.360,1.0,0.385,0.006
06/10/2022,09:20:12,0.363,1.0,0.391,0.006
06/10/2022,09:21:11,0.368,1.0,0.397,0.006
06/10/2022,09:22:11,0.372,1.0,0.404,0.007
06/10/2022,09:23:11,0.378,1.0,0.41,0.006
06/10/2022,09:24:11,0.382,1.0,0.416,0.006
06/10/2022,09:25:12,0.381,1.0,0.422,0.006
06/10/2022,09:26:12,0.387,1.0,0.429,0.007
06/10/2022,09:27:12,0.391,1.0,0.435,0.006
06/10/2022,09:28:12,0.397,1.0,0.442,0.007
06/10/2022,09:29:11,0.398,1.0,0.449,0.007
06/10/2022,09:30:12,0.408,1.0,0.455,0.006
06/10/2022,09:31:11,0.412,1.0,0.462,0.007
06/10/2022,09:32:11,0.414,1.0,0.469,0.007
06/10/2022,09:33:12,0.421,1.0,0.476,0.007
06/10/2022,09:34:11,0.424,1.0,0.483,0.007
06/10/2022,09:35:11,0.429,1.0,0.49,0.007
06/10/2022,09:36:12,0.432,1.0,0.497,0.007
06/10/2022,09:37:12,0.437,1.0,0.505,0.008
06/10/2022,09:38:11,0.442,1.0,0.512,0.007
06/10/2022,09:39:11,0.443,1.0,0.519,0.007
06/10/2022,09:40:12,0.446,1.0,0.527,0.008
06/10/2022,09:41:12,0.450,1.0,0.534,0.007
06/10/2022,09:42:12,0.455,1.0,0.542,0.008
06/10/2022,09:43:12,0.459,1.0,0.549,0.007
06/10/2022,09:44:12,0.462,1.0,0.557,0.008
06/10/2022,09:45:11,0.466,1.0,0.565,0.008
06/10/2022,09:46:12,0.471,1.0,0.573,0.008
06/10/2022,09:47:11,0.478,1.0,0.58,0.007
06/10/2022,09:48:12,0.482,1.0,0.588,0.008
06/10/2022,09:49:12,0.487,1.0,0.597,0.009
06/10/2022,09:50:12,0.486,1.0,0.605,0.008
06/10/2022,09:51:11,0.491,1.0,0.613,0.008
06/10/2022,09:52:11,0.486,1.0,0.621,0.008
06/10/2022,09:53:12,0.496,1.0,0.629,0.008
06/10/2022,09:54:12,0.500,1.0,0.637,0.008
06/10/2022,09:55:11,0.508,1.0,0.646,0.009
06/10/2022,09:56:12,0.519,1.0,0.654,0.008
06/10/2022,09:57:12,0.522,1.0,0.663,0.009
06/10/2022,09:58:12,0.525,1.0,0.672,0.009
06/10/2022,09:59:11,0.529,1.0,0.681,0.009
06/10/2022,10:00:12,0.529,1.0,0.689,0.008
06/10/2022,10:01:12,0.478,1.0,0.698,0.009
06/10/2022,10:02:11,0.515,1.0,0.706,0.008
06/10/2022,10:03:11,0.547,1.0,0.715,0.009
06/10/2022,10:04:12,0.546,1.0,0.724,0.009
06/10/2022,10:05:11,0.546,1.0,0.733,0.009
06/10/2022,10:06:12,0.551,1.0,0.743,0.01
06/10/2022,10:07:12,0.553,1.0,0.752,0.009
06/10/2022,10:08:11,0.560,1.0,0.761,0.009